TimeEST,TemperatureF,Dew PointF,Humidity,Sea Level PressureIn,VisibilityMPH,Wind Direction,Wind SpeedMPH,Gust SpeedMPH,PrecipitationIn,Events,Conditions,WindDirDegrees,DateUTC
12:12 AM,30.2,28.4,93,29.92,3.0,Calm,Calm,-,0.00,Snow,Light Snow,0,2013-02-24 05:12:00
12:19 AM,30.2,30.2,100,29.92,2.5,Calm,Calm,-,0.00,Snow,Light Snow,0,2013-02-24 05:19:00
12:33 AM,30.2,28.4,93,29.91,1.5,Calm,Calm,-,0.00,Snow,Light Snow,0,2013-02-24 05:33:00
12:54 AM,30.0,28.9,96,29.94,1.8,Calm,Calm,-,0.01,,Overcast,0,2013-02-24 05:54:00
1:08 AM,30.2,28.4,93,29.91,2.5,Calm,Calm,-,N/A,,Overcast,0,2013-02-24 06:08:00
1:35 AM,30.2,28.4,93,29.89,1.5,Calm,Calm,-,0.00,Snow,Light Snow,0,2013-02-24 06:35:00
1:47 AM,30.2,28.4,93,29.89,2.5,Calm,Calm,-,0.00,Snow,Light Snow,0,2013-02-24 06:47:00
1:54 AM,30.9,28.9,92,29.91,2.5,Calm,Calm,-,0.00,Snow,Light Snow,0,2013-02-24 06:54:00
2:42 AM,30.2,28.4,93,29.86,3.0,Calm,Calm,-,0.01,Snow,Light Snow,0,2013-02-24 07:42:00
2:54 AM,30.9,30.0,96,29.88,2.5,Calm,Calm,-,0.02,Snow,Light Snow,0,2013-02-24 07:54:00
3:10 AM,30.2,28.4,93,29.85,1.2,Calm,Calm,-,0.01,Snow,Light Snow,0,2013-02-24 08:10:00
3:51 AM,30.2,28.4,93,29.84,1.2,Calm,Calm,-,0.03,Snow,Light Snow,0,2013-02-24 08:51:00
3:54 AM,30.9,28.9,92,29.86,1.5,Calm,Calm,-,0.03,Snow,Light Snow,0,2013-02-24 08:54:00
4:14 AM,30.2,28.4,93,29.84,1.0,Calm,Calm,-,0.01,Snow,Light Snow,0,2013-02-24 09:14:00
4:22 AM,30.2,28.4,93,29.83,1.0,Calm,Calm,-,0.02,Snow,Light Snow,0,2013-02-24 09:22:00
4:54 AM,30.9,28.9,92,29.87,1.5,Calm,Calm,-,0.03,Snow,Light Snow,0,2013-02-24 09:54:00
5:17 AM,30.2,28.4,93,29.84,1.5,Calm,Calm,-,0.01,Snow,Light Snow,0,2013-02-24 10:17:00
5:40 AM,30.2,28.4,93,29.84,2.0,Calm,Calm,-,0.02,Snow,Light Snow,0,2013-02-24 10:40:00
5:43 AM,30.2,28.4,93,29.84,2.0,Calm,Calm,-,0.02,Snow,Light Snow,0,2013-02-24 10:43:00
5:50 AM,30.2,28.4,93,29.84,1.5,Calm,Calm,-,0.03,Snow,Light Snow,0,2013-02-24 10:50:00
5:54 AM,30.9,28.9,92,29.86,1.5,Calm,Calm,-,0.03,Snow,Light Snow,0,2013-02-24 10:54:00
6:08 AM,30.2,28.4,93,29.84,1.0,Calm,Calm,-,0.01,Snow,Light Snow,0,2013-02-24 11:08:00
6:26 AM,30.2,28.4,93,29.83,2.0,Calm,Calm,-,0.02,Snow,Light Snow,0,2013-02-24 11:26:00
6:34 AM,30.2,28.4,93,29.83,1.2,Calm,Calm,-,0.02,Snow,Light Snow,0,2013-02-24 11:34:00
6:54 AM,30.9,28.9,92,29.85,1.5,Calm,Calm,-,0.03,Snow,Light Snow,0,2013-02-24 11:54:00
7:25 AM,30.2,28.4,93,29.83,1.5,Calm,Calm,-,0.00,Snow,Light Snow,0,2013-02-24 12:25:00
7:32 AM,30.2,28.4,93,29.83,1.2,Calm,Calm,-,0.00,Snow,Light Snow,0,2013-02-24 12:32:00
7:45 AM,30.2,30.2,100,29.83,0.8,Calm,Calm,-,0.00,Snow,Light Snow,0,2013-02-24 12:45:00
8:07 AM,30.2,30.2,100,29.83,0.8,Calm,Calm,-,0.01,Snow,Light Snow,0,2013-02-24 13:07:00
8:54 AM,30.9,30.0,96,29.84,0.8,Calm,Calm,-,0.03,Snow,Light Snow,0,2013-02-24 13:54:00
9:01 AM,32.0,30.2,93,29.81,1.0,Calm,Calm,-,0.00,Snow,Light Snow,0,2013-02-24 14:01:00
9:19 AM,30.2,28.4,93,29.81,1.0,Calm,Calm,-,0.01,Snow,Light Snow,0,2013-02-24 14:19:00
9:54 AM,32.0,30.0,92,29.82,2.0,Calm,Calm,-,0.01,Snow,Light Snow,0,2013-02-24 14:54:00
10:11 AM,32.0,30.2,93,29.79,2.5,Calm,Calm,-,0.00,Snow,Light Snow,0,2013-02-24 15:11:00
10:32 AM,33.8,30.2,87,29.79,3.0,Calm,Calm,-,0.00,Snow,Light Snow,0,2013-02-24 15:32:00
10:54 AM,34.0,28.9,82,29.81,5.0,Calm,Calm,-,0.00,Snow,Light Snow,0,2013-02-24 15:54:00
11:09 AM,33.8,28.4,81,29.79,4.0,Calm,Calm,-,0.00,Snow,Light Snow,0,2013-02-24 16:09:00
11:27 AM,33.8,28.4,81,29.78,9.0,Calm,Calm,-,0.00,,Overcast,0,2013-02-24 16:27:00
12:29 PM,33.8,30.2,87,29.77,5.0,Calm,Calm,-,0.01,Snow,Light Snow,0,2013-02-24 17:29:00
12:54 PM,33.1,30.0,89,29.79,3.0,Calm,Calm,-,0.01,Snow,Light Snow,0,2013-02-24 17:54:00
1:18 PM,33.8,30.2,87,29.76,10.0,Calm,Calm,-,0.00,,Overcast,0,2013-02-24 18:18:00
1:39 PM,33.8,30.2,87,29.75,10.0,Calm,Calm,-,0.00,,Overcast,0,2013-02-24 18:39:00
1:54 PM,34.0,30.0,85,29.78,10.0,Calm,Calm,-,0.00,,Overcast,0,2013-02-24 18:54:00
2:13 PM,33.8,30.2,87,29.75,9.0,Calm,Calm,-,N/A,,Overcast,0,2013-02-24 19:13:00
2:23 PM,33.8,30.2,87,29.75,10.0,East,3.5,-,N/A,,Overcast,90,2013-02-24 19:23:00
2:30 PM,33.8,30.2,87,29.75,10.0,Calm,Calm,-,N/A,,Overcast,0,2013-02-24 19:30:00
2:38 PM,33.8,30.2,87,29.75,10.0,Calm,Calm,-,N/A,,Overcast,0,2013-02-24 19:38:00
2:46 PM,33.8,30.2,87,29.75,9.0,Calm,Calm,-,0.01,,Overcast,0,2013-02-24 19:46:00
2:54 PM,35.1,30.9,85,29.78,7.0,Calm,Calm,-,0.01,,Overcast,0,2013-02-24 19:54:00
3:10 PM,33.8,30.2,87,29.75,5.0,Calm,Calm,-,0.00,,Overcast,0,2013-02-24 20:10:00
3:38 PM,33.8,30.2,87,29.75,4.0,Calm,Calm,-,0.00,Snow,Light Snow,0,2013-02-24 20:38:00
3:54 PM,34.0,32.0,92,29.78,4.0,Calm,Calm,-,0.01,Snow,Light Snow,0,2013-02-24 20:54:00
4:18 PM,33.8,30.2,87,29.76,7.0,Calm,Calm,-,0.00,Snow,Light Snow,0,2013-02-24 21:18:00
4:37 PM,33.8,32.0,93,29.76,5.0,Calm,Calm,-,0.00,Snow,Light Snow,0,2013-02-24 21:37:00
4:54 PM,33.1,30.9,92,29.79,2.5,Calm,Calm,-,0.01,Snow,Light Snow,0,2013-02-24 21:54:00
5:09 PM,33.8,30.2,87,29.77,2.5,Calm,Calm,-,0.00,Snow,Light Snow,0,2013-02-24 22:09:00
5:18 PM,33.8,30.2,87,29.77,2.0,Calm,Calm,-,0.00,Snow,Light Snow,0,2013-02-24 22:18:00
5:40 PM,32.0,30.2,93,29.78,1.8,Calm,Calm,-,0.00,Snow,Light Snow,0,2013-02-24 22:40:00
5:47 PM,32.0,30.2,93,29.78,2.0,Calm,Calm,-,0.01,Snow,Light Snow,0,2013-02-24 22:47:00
5:54 PM,32.0,30.9,96,29.81,1.8,Calm,Calm,-,0.01,Snow,Light Snow,0,2013-02-24 22:54:00
6:05 PM,32.0,30.2,93,29.79,1.8,Calm,Calm,-,0.00,Snow,Light Snow,0,2013-02-24 23:05:00
6:20 PM,32.0,30.2,93,29.80,1.5,Calm,Calm,-,0.00,Snow,Light Snow,0,2013-02-24 23:20:00
6:50 PM,32.0,30.2,93,29.81,2.0,Calm,Calm,-,0.01,Snow,Light Snow,0,2013-02-24 23:50:00
6:54 PM,32.0,30.9,96,29.84,2.0,Calm,Calm,-,0.01,Snow,Light Snow,0,2013-02-24 23:54:00
7:00 PM,32.0,30.2,93,29.82,1.2,Calm,Calm,-,0.01,Snow,Light Snow,0,2013-02-25 00:00:00
7:09 PM,32.0,30.2,93,29.82,0.8,Calm,Calm,-,0.01,Snow,Light Snow,0,2013-02-25 00:09:00
7:32 PM,32.0,30.2,93,29.83,1.0,Calm,Calm,-,0.02,Snow,Light Snow,0,2013-02-25 00:32:00
7:45 PM,32.0,30.2,93,29.84,2.5,Calm,Calm,-,0.02,Snow,Light Snow,0,2013-02-25 00:45:00
7:54 PM,32.0,30.9,96,29.87,2.0,Calm,Calm,-,0.02,Snow,Light Snow,0,2013-02-25 00:54:00
8:03 PM,32.0,30.2,93,29.85,1.2,Calm,Calm,-,0.01,Snow,Light Snow,0,2013-02-25 01:03:00
8:18 PM,32.0,30.2,93,29.86,1.0,Calm,Calm,-,0.02,Snow,Light Snow,0,2013-02-25 01:18:00
8:30 PM,32.0,30.2,93,29.86,1.5,Calm,Calm,-,0.02,Snow,Light Snow,0,2013-02-25 01:30:00
8:38 PM,32.0,30.2,93,29.87,1.2,Calm,Calm,-,0.02,Snow,Light Snow,0,2013-02-25 01:38:00
9:10 PM,32.0,30.2,93,29.88,2.5,Calm,Calm,-,0.00,Snow,Light Snow,0,2013-02-25 02:10:00
9:20 PM,32.0,30.2,93,29.88,3.0,Calm,Calm,-,0.00,Snow,Light Snow,0,2013-02-25 02:20:00
9:54 PM,32.0,28.9,88,29.91,5.0,Calm,Calm,-,0.00,,Overcast,0,2013-02-25 02:54:00
10:54 PM,30.9,28.9,92,29.92,8.0,WSW,3.5,-,N/A,,Overcast,240,2013-02-25 03:54:00
11:11 PM,32.0,26.6,80,29.90,10.0,West,6.9,-,N/A,,Overcast,270,2013-02-25 04:11:00
11:33 PM,32.0,26.6,80,29.91,10.0,West,6.9,-,N/A,,Overcast,270,2013-02-25 04:33:00
11:54 PM,30.9,26.1,82,29.91,10.0,WNW,4.6,-,N/A,,Overcast,290,2013-02-25 04:54:00